This demonstration page uses our WeatherBlox Daily Observations layout. Learn more.

Left ArrowRight Arrow

Hourly Observations for June 25, 2022

Temp ( °F °C ) Dew Point ( °F °C ) Humidity (%) Winds ( mph kmh ) Pressure ( in mb ) Visibility ( mi km ) Precip ( " mm )
12:15 am 00:15 Mostly Cloudy with Thunderstorms 73 23 62 16.6 67 67 NW 7 11 29.76 1008 10 16 0.01 0.25
12:35 am 00:35 Partly Cloudy with Thunderstorms 74 23.4 63 17 67 67 N 9 15 29.72 1006 10 16 0.01 0.25
12:55 am 00:55 Mostly Cloudy with Thunderstorms 75 23.9 61 15.9 61 61 NW 10 17 29.69 1005 10 16 0.01 0.25
1:15 am 01:15 Partly Cloudy 74 23.2 62 16.6 67 67 NNE 5 7 29.68 1005 10 16 0.00 0.00
1:35 am 01:35 Partly Cloudy 73 22.6 63 17.2 72 72 NE 12 19 29.65 1004 10 16 0.00 0.00
1:55 am 01:55 Clear 73 23 63 17.4 71 71 N 7 11 29.64 1004 10 16 0.00 0.00
2:15 am 02:15 Clear 72 22.4 65 18.2 77 77 WNW 12 19 29.70 1006 10 16 0.00 0.00
2:35 am 02:35 Clear 73 22.7 61 16.2 67 67 WNW 7 11 29.72 1006 10 16 0.00 0.00
2:55 am 02:55 Clear 71 21.7 63 17.1 75 75 NW 7 11 29.70 1006 10 16 0.00 0.00
3:15 am 03:15 Clear 70 21 65 18.2 84 84 SSW 8 13 29.73 1007 10 16 0.00 0.00
3:35 am 03:35 Clear 70 21.1 64 17.6 81 81 SW 8 13 29.75 1007 10 16 0.00 0.00
3:55 am 03:55 Clear 71 21.5 64 17.7 79 79 SSW 10 17 29.76 1008 10 16 0.00 0.00
4:15 am 04:15 Clear 70 21 64 17.6 81 81 SSW 8 13 29.77 1008 10 16 0.00 0.00
4:35 am 04:35 Clear 69 20.8 64 17.7 83 83 SW 3 6 29.77 1008 10 16 0.00 0.00
4:55 am 04:55 Clear 69 20.8 64 17.9 84 84 SW 10 17 29.78 1008 10 16 0.00 0.00
5:15 am 05:15 Clear 69 20.8 65 18.1 85 85 W 7 11 29.79 1009 10 16 0.00 0.00
5:35 am 05:35 Clear 70 21 65 18.3 85 85 W 5 7 29.81 1009 10 16 0.00 0.00
5:55 am 05:55 Clear 69 20.6 65 18.4 87 87 NW 7 11 29.81 1010 10 16 0.00 0.00
6:15 am 06:15 Sunny 70 20.9 65 18.3 85 85 NW 12 19 29.82 1010 10 16 0.00 0.00
6:35 am 06:35 Sunny 70 21.1 65 18.5 85 85 NW 16 26 29.83 1010 10 16 0.00 0.00
6:55 am 06:55 Sunny 71 21.8 66 19.1 85 85 NNW 20 31 29.83 1010 10 16 0.00 0.00
7:15 am 07:15 Sunny with Thunderstorms 69 20.8 64 17.7 83 83 NNW 28 44 29.89 1012 10 16 0.00 0.00
7:35 am 07:35 Partly Cloudy 67 19.6 63 17 85 85 NNW 32 52 29.92 1013 10 16 0.00 0.00
7:55 am 07:55 Cloudy 65 18.3 61 16.1 87 87 N 31 50 29.95 1014 10 16 0.00 0.00
8:15 am 08:15 Cloudy 64 18 58 14.5 80 80 N 30 48 29.97 1015 10 16 0.00 0.00
8:35 am 08:35 Cloudy 64 17.7 57 14 79 79 N 26 43 30.00 1016 10 16 0.00 0.00
8:55 am 08:55 Cloudy 64 17.5 56 13.4 77 77 N 25 41 30.01 1016 10 16 0.00 0.00
9:15 am 09:15 Cloudy 64 17.5 56 13.5 78 78 N 26 43 30.01 1016 10 16 0.00 0.00
9:35 am 09:35 Cloudy 64 17.7 56 13.5 77 77 N 28 44 30.01 1016 10 16 0.00 0.00
9:55 am 09:55 Mostly Cloudy 65 18.1 57 13.8 76 76 N 21 33 30.01 1016 10 16 0.00 0.00
10:15 am 10:15 Mostly Cloudy 66 18.8 57 14 74 74 N 21 33 30.02 1016 10 16 0.00 0.00
10:35 am 10:35 Mostly Cloudy 68 20.1 57 14 68 68 N 26 43 30.01 1016 10 16 0.00 0.00
10:55 am 10:55 Cloudy 69 20.6 57 14 66 66 N 21 33 30.01 1016 10 16 0.00 0.00
11:15 am 11:15 Cloudy 70 21 57 14 64 64 N 21 33 30.02 1017 10 16 0.00 0.00
11:35 am 11:35 Cloudy 70 21.3 56 13.5 61 61 N 24 39 30.03 1017 10 16 0.00 0.00
11:55 am 11:55 Cloudy 71 21.6 55 12.9 58 58 N 18 30 30.03 1017 10 16 0.00 0.00
12:15 pm 12:15 Cloudy 73 22.9 55 12.8 53 53 N 22 35 30.02 1017 10 16 0.00 0.00
12:35 pm 12:35 Cloudy 74 23.2 55 12.7 52 52 N 20 31 30.02 1017 10 16 0.00 0.00
12:55 pm 12:55 Mostly Cloudy 76 24.3 55 12.8 49 49 N 26 43 30.01 1016 10 16 0.00 0.00
1:15 pm 13:15 Sunny 76 24.6 54 12.4 47 47 N 18 30 30.01 1016 10 16 0.00 0.00
1:35 pm 13:35 Sunny 77 25.1 53 11.9 44 44 N 18 30 30.02 1016 10 16 0.00 0.00
1:55 pm 13:55 Sunny 78 25.3 52 10.9 40 40 N 17 28 30.01 1016 10 16 0.00 0.00
2:15 pm 14:15 Sunny 78 25.6 51 10.3 38 38 N 21 33 30.01 1016 10 16 0.00 0.00
2:35 pm 14:35 Sunny 78 25.7 51 10.4 38 38 N 18 30 30.01 1016 10 16 0.00 0.00
2:55 pm 14:55 Sunny 79 26.3 51 10.6 37 37 N 21 33 30.01 1016 10 16 0.00 0.00
3:15 pm 15:15 Sunny 80 26.4 51 10.8 38 38 N 23 37 30.00 1016 10 16 0.00 0.00
3:35 pm 15:35 Sunny 80 26.4 51 10.4 37 37 N 17 28 30.02 1017 10 16 0.00 0.00
3:55 pm 15:55 Sunny 78 25.4 51 10.8 40 40 N 18 30 30.03 1017 10 16 0.00 0.00
4:15 pm 16:15 Sunny 77 25 52 10.9 41 41 N 17 28 30.04 1017 10 16 0.00 0.00
4:35 pm 16:35 Sunny 77 25 53 11.6 43 43 N 13 20 30.05 1017 10 16 0.00 0.00
4:55 pm 16:55 Sunny 76 24.5 52 11 43 43 N 17 28 30.05 1018 10 16 0.00 0.00
5:15 pm 17:15 Sunny 75 24 51 10.5 43 43 N 10 17 30.05 1018 10 16 0.00 0.00
5:35 pm 17:35 Sunny 75 23.7 52 11.1 45 45 N 10 17 30.07 1018 10 16 0.00 0.00
5:55 pm 17:55 Sunny 74 23.5 52 10.9 45 45 N 10 17 30.07 1018 10 16 0.00 0.00
6:15 pm 18:15 Sunny 74 23.1 53 11.6 48 48 N 10 17 30.07 1018 10 16 0.00 0.00
6:35 pm 18:35 Sunny 74 23.2 53 11.6 48 48 N 10 17 30.06 1018 10 16 0.00 0.00
6:55 pm 18:55 Sunny 74 23.2 53 11.7 48 48 NNE 10 17 30.06 1018 10 16 0.00 0.00
7:15 pm 19:15 Sunny 75 23.9 54 12 47 47 N 9 15 30.05 1018 10 16 0.00 0.00
7:35 pm 19:35 Sunny 73 23 53 11.7 49 49 NNE 7 11 30.07 1018 10 16 0.00 0.00
7:55 pm 19:55 Sunny 73 22.6 53 11.8 51 51 NNE 8 13 30.09 1019 10 16 0.00 0.00
8:15 pm 20:15 Sunny 71 21.7 53 11.7 53 53 NNE 9 15 30.10 1019 10 16 0.00 0.00
8:35 pm 20:35 Sunny 69 20.7 52 11.2 55 55 NNE 7 11 30.12 1020 10 16 0.00 0.00
8:55 pm 20:55 Sunny 67 19.7 53 11.8 60 60 NNE 7 11 30.14 1021 10 16 0.00 0.00
9:15 pm 21:15 Clear 68 19.8 51 10.5 55 55 N 8 13 30.15 1021 10 16 0.00 0.00
9:35 pm 21:35 Clear 65 18.2 53 11.6 66 66 N 6 9 30.17 1022 10 16 0.00 0.00
9:55 pm 21:55 Clear 63 17.4 53 11.7 69 69 N 6 9 30.19 1022 10 16 0.00 0.00
10:15 pm 22:15 Clear 62 16.5 54 12 75 75 N 7 11 30.22 1023 10 16 0.00 0.00
10:35 pm 22:35 Clear 61 16.3 52 11.1 72 72 N 6 9 30.23 1024 10 16 0.00 0.00
10:55 pm 22:55 Clear 61 16.3 51 10.6 69 69 NNE 6 9 30.24 1024 10 16 0.00 0.00
11:15 pm 23:15 Clear 60 15.3 52 11 76 76 N 6 9 30.26 1025 10 16 0.00 0.00
11:35 pm 23:35 Clear 58 14.7 52 11.2 80 80 N 6 9 30.26 1025 10 16 0.00 0.00
11:55 pm 23:55 Clear 57 14.1 52 11 82 82 N 5 7 30.27 1025 10 16 0.00 0.00

Powered by AerisWeather